Regional Weather Roundup
Issued by NWS Newport/Morehead, NC

Current Version | Previous Version | Text Only | Print | Product List | Glossary On
Versions: 1 2 3 4 5 6 7 8 9 10 11 12 13 14 15 16 17 18 19 20 21 22 23 24 25 26 27 28 29 30 31 32 33 34 35 36 37 38 39 40 41 42 43 44 45 46 47 48 49 50
000 ASUS42 KMHX 301810 RWRMHX WEATHER ROUNDUP FOR EASTERN NORTH CAROLINA NATIONAL WEATHER SERVICE NEWPORT/MOREHEAD CITY NC 200 PM EDT TUE SEP 30 2014 NOTE: "FAIR" INDICATES FEW OR NO CLOUDS BELOW 12,000 FEET WITH NO SIGNIFICANT WEATHER AND/OR OBSTRUCTIONS TO VISIBILITY NCZ015>017-031-032-045>047-102-103-301900- NORTH COAST CITY SKY/WX TMP DP RH WIND PRES REMARKS EDENTON MOSUNNY 76 65 67 S6 29.87F ELIZABETH CITY SUNNY 77 62 59 NE6 29.87F KITTY HAWK PTCLDY 74 64 70 NE8 29.86F MANTEO MOSUNNY 74 63 69 NE10 29.87F $$ NCZ045>047-081-094-103-104-301900- CENTRAL COAST CITY SKY/WX TMP DP RH WIND PRES REMARKS FRISCO SUNNY 73 66 78 VRB7 29.86F SWANQUARTER N/A 79 N/A N/A NE8 29.82S $$ NCZ095-097-098-100-101-301900- SOUTHERN COAST CITY SKY/WX TMP DP RH WIND PRES REMARKS BEAUFORT SUNNY 79 62 56 NE9 29.85F CEDAR ISLAND N/A 75 N/A N/A NE8 29.91S JACKSONVILLE MOSUNNY 79 63 57 N5 29.85F NEWPORT NOT AVBL PINEY ISLAND CLEAR 76 63 64 E9 29.85F HAZE WILMINGTON SUNNY 79 64 60 N7 29.84F $$ NCZ011>013-027>030-043-044-078>080-089-090>093-098-301900- COASTAL PLAIN CITY SKY/WX TMP DP RH WIND PRES REMARKS AHOSKIE SUNNY 72 62 71 CALM 29.89F CLINTON MOSUNNY 79 65 63 N7 29.87F ELIZABETHTOWN MOSUNNY 78 64 61 NW3 29.87F GOLDSBORO MOSUNNY 75 68 78 CALM 29.86F GREENVILLE MOSUNNY 79 63 57 NE5 29.90F HAVELOCK MOSUNNY 79 64 60 NE5 29.86F KENANSVILLE MOSUNNY 78 61 56 NW3 29.87F KINSTON MOSUNNY 77 63 61 N7 29.88F NEW BERN MOSUNNY 80 64 58 NE9 29.87F RICHLANDS MOSUNNY 79 63 57 N6 29.86F ROANOKE RAPIDS NOT AVBL ROCKY MOUNT CLOUDY 72 63 73 N5 29.90F WASHINGTON MOSUNNY 78 63 60 NE5 29.87F WHITEVILLE MOSUNNY 78 63 59 CALM 29.86F $$ AMZ130-135-150-152-154-156-158-170-250-252-270-ANZ085-086-088-633-658-670-301900- MARINE OBSERVATIONS STATION/POSITION TIME TEMP WIND PRES WAVE SWELL AIR SEA DIR/SP/G HT/PER HT/PER (UTC) (F) (DEG/KT/KT) (MB) (FT/S) (FT/S) CHESAPEAKE LIGHT 1700 70 30/ 8/ 10 1013.2 BUOY 44014 1800 70 72 50/ 6/ 8 1011.3 2/ 8 2/ 8 DUCK 1800 71 73 30/ 9/ 11 1011.0 2E DUCK 1800 N/A 2/ 7 OREGON INLET 1800 72 73 20/ 11/ 15 1011.2 BUOY 44095 1800 74 N/A 3/ 8 20E OREGON INLET NOT AVBL HATTERAS CG 1800 72 74 20/ 13/ 15 1011.5 DIAMOND BUOY 1700 74 360/ 17/ 21 1010.6 3/ 8 2/ 8 CAPE LOOKOUT 1700 73 40/ 12/ 15 1011.2 BEAUFORT LAB 1800 76 74 10/ 11/ 13 1010.3 30 SE NEW RIVER 1800 74 80 20/ 14/ 16 1010.0 3/ 5 2/14 5 SE WRIGHTSVILL 1700 70 76 50/ 10/ 12 N/A BUOY 41002 1659 75 80 150/ 12/ 14 1008.6 3/ 7 3/ 7 BUOY 41004 1800 75 81 20/ 16/ 19 1009.8 4/ 6 2/14 $$

USA.gov is the U.S. government's official web portal to all federal, state and local government web resources and services.